Regional Weather Roundup
Issued by NWS Sterling, VA

Home | Current Version | Previous Version | Graphics & Text | Print | Product List | Glossary On
Versions: 1 2 3 4 5 6 7 8 9 10 11 12 13 14 15 16 17 18 19 20 21 22 23 24 25 26 27 28 29 30 31 32 33 34 35 36 37 38 39 40 41 42 43 44 45 46 47 48 49 50
000
ASUS41 KLWX 311810
RWRLWX

REGIONAL WEATHER ROUNDUP
NATIONAL WEATHER SERVICE BALTIMORE MD/WASHINGTON DC
200 PM EDT THU JUL 31 2014

Note: "FAIR" indicates few or no clouds below 12,000 feet
with no significant weather and/or obstructions to visibility.
 TC=TEMPERATURE CELSIUS

 * =Non NWS site. Station does not report precipitation (e.g. rain,
    snow, etc.), thunder, or fog.

DCZ001-MDZ009-015-VAZ040>042-051-053>054-311900-
WASHINGTON METRO
  /KDAA//-FT BELVOIR

CITY           SKY/WX    TMP DP  RH WIND       PRES   REMARKS
WASHINGTON NAT MOSUNNY   86  62  44 S12       30.09F
DULLES         MOSUNNY   83  55  38 S9        30.09F
ANDREWS AFB    MOSUNNY   83  64  50 S8G21     30.10
QUANTICO       PTSUNNY   85  57  38 SW8       30.10F
COLLEGE PARK*  PTSUNNY   86  55  35 SW3G16    30.08F
LEESBURG*      SUNNY     82  61  47 NW7       30.10F
GAITHERSBURG*  MOSUNNY   81  57  44 W6        30.13F

$$

MDZ006>007-011-014-311900-
BALTIMORE METRO

CITY           SKY/WX    TMP DP  RH WIND       PRES   REMARKS
BWI AIRPORT    MOSUNNY   84  55  36 VRB7      30.08F
MD SCIENCE CTR   N/A     84  55  36 MISG      30.08F
MARTIN STATE   MOSUNNY   82  70  65 SE9       30.10F
ANNAPOLIS      MOSUNNY   80  65  59 SE16      30.09F
FORT MEADE*    SUNNY     84  59  42 CALM      30.11S

$$

MDZ012-015-019>023-311900-
MARYLAND EASTERN SHORE

CITY           SKY/WX    TMP DP  RH WIND       PRES   REMARKS
OCEAN CITY     MOSUNNY   80  68  66 S10G16    30.13S
SALISBURY      MOSUNNY   85  60  42 W9        30.12S
BAY BRIDGE AP*   N/A     81  63  54 SE12      30.10S
CAMBRIDGE*     SUNNY     82  59  44 S7        30.11S
EASTON*        MOSUNNY   84  59  42 SW12      30.14

$$

MDZ017>025-311900-
SOUTHERN MARYLAND

CITY           SKY/WX    TMP DP  RH WIND       PRES   REMARKS
PATUXENT RIVER PTSUNNY   84  60  44 SW9       30.10F
ST INIGOES     MOSUNNY   82  63  52 VRB6      30.10F
LEONARDTOWN*   MOSUNNY   82  57  42 SW6G17    30.12S

$$

MDZ003>005-311900-
NORTH CENTRAL MARYLAND

CITY           SKY/WX    TMP DP  RH WIND       PRES   REMARKS
FREDERICK*     SUNNY     84  61  45 SW10      30.13S
HAGERSTOWN APT SUNNY     79  59  50 VRB6      30.11S
WESTMINSTER*   SUNNY     81  64  57 S7        30.11F

$$

MDZ501>502-311900-
WESTERN MARYLAND

CITY           SKY/WX    TMP DP  RH WIND       PRES   REMARKS
OAKLAND*       SUNNY     70  55  60 W10       30.19S
CUMBERLAND*    MOSUNNY   82  59  44 CALM      30.13S

$$

VAZ025>031-311900-
SHENANDOAH VALLEY

CITY           SKY/WX    TMP DP  RH WIND       PRES   REMARKS
WINCHESTER*    MOSUNNY   82  55  39 CALM      30.11S
STAUNTON*      MOSUNNY   82  51  33 SW6       30.14F

$$

WVZ021-048>050-054>055-311900-
EASTERN WEST VIRGINIA PANHANDLE

CITY           SKY/WX    TMP DP  RH WIND       PRES   REMARKS
MARTINSBURG    MOSUNNY   83  54  36 VRB5      30.11S
PETERSBURG*    SUNNY     83  51  32 SW3       30.11F

$$

VAZ036>039-050-311900-
CENTRAL FOOTHILLS

CITY           SKY/WX    TMP DP  RH WIND       PRES   REMARKS
CHARLOTTESVILL SUNNY     83  58  42 VRB6      30.11F
ORANGE*        MOSUNNY   84  55  37 S10       30.12S

$$

VAZ055>057-311900-
NORTH AND CENTRAL PIEDMONT

CITY           SKY/WX    TMP DP  RH WIND       PRES   REMARKS
FREDERICKSBRG* MOSUNNY   87  59  38 SW8       30.09F
STAFFORD*      PTSUNNY   85  57  39 SW10      30.14S

$$

NCZ024-NYZ072-PAZ021-071-VAZ022-071-311900-
OTHER REGIONAL OBSERVATIONS

CITY           SKY/WX    TMP DP  RH WIND       PRES   REMARKS
NEW YORK CITY  PTSUNNY   81  59  47 VRB6      30.10F
PHILADELPHIA   MOSUNNY   82  62  50 W13       30.09F
PITTSBURGH     PTSUNNY   74  60  61 W14       30.09F
ROANOKE        PTSUNNY   81  59  47 VRB6      30.15F
RICHMOND       CLOUDY    84  62  47 S14       30.12S
RALEIGH        CLOUDY    80  66  62 VRB6      30.14S

$$

ANZ530>537-311900-
MARINE OBSERVATIONS

STATION/POSITION TIME  TEMP    WIND        PRES
                       AIR SEA DIR/SP/G
                 (UTC) (F)     (DEG/KT/KT) (MB)
THOMAS PT LIGHT  1800   78 78  170/ 14/ 15 1019.5F
BALT KEY BRIDGE  1800   80     210/  5/  9 1018.6S
COVE POINT       1800   76     170/ 15/ 17 1019.5S
LEWISETTA        1800   81 79  210/ 10/ 16 1019.3F
SOLOMONS ISLAND  1800      80                N/A
PINEY POINT      1800          220/  5/  6   N/A

$$




USA.gov is the U.S. government's official web portal to all federal, state and local government web resources and services.